| time (UTC) | temp F | wind direction | speed MPH | gust MPH | rain 1hr in | rain 24hr in | rain mn in | humidity % | barometer mb |
| 20260902231534 | 58 | 219 | 10.0 | 20.0 | 0.00 | 0.01 | 0.01 | 80 | 1011.5 |
| 20260902230106 | 58 | 215 | 9.0 | 17.0 | 0.00 | 0.01 | 0.01 | 82 | 1011.6 |
| 20260902224534 | 58 | 210 | 7.0 | 13.0 | 0.00 | 0.01 | 0.01 | 83 | 1011.5 |
| 20260902223036 | 58 | 225 | 6.0 | 10.0 | 0.00 | 0.01 | 0.01 | 83 | 1011.5 |
| 20260902221536 | 57 | 222 | 6.0 | 11.0 | 0.00 | 0.01 | 0.01 | 84 | 1011.5 |
| 20260902214534 | 56 | 217 | 5.0 | 10.0 | 0.00 | 0.01 | 0.01 | 86 | 1011.6 |
| 20260902211604 | 56 | 218 | 5.0 | 11.0 | 0.01 | 0.01 | 0.01 | 85 | 1011.7 |
| 20260902210108 | 56 | 224 | 7.0 | 15.0 | 0.01 | 0.01 | 0.01 | 84 | 1011.9 |
| 20260902204535 | 56 | 215 | 7.0 | 12.0 | 0.01 | 0.01 | 0.01 | 82 | 1011.8 |
| 20260902203036 | 57 | 224 | 7.0 | 14.0 | 0.01 | 0.01 | 0.00 | 80 | 1011.7 |
| 20260902201535 | 57 | 216 | 7.0 | 13.0 | 0.00 | 0.00 | 0.00 | 80 | 1011.8 |
| 20260902200035 | 56 | 219 | 8.0 | 14.0 | 0.00 | 0.00 | 0.00 | 80 | 1011.9 |
| 20260902194642 | 57 | 226 | 9.0 | 16.0 | 0.00 | 0.00 | 0.00 | 75 | 1011.9 |
| 20260902193037 | 59 | 232 | 9.0 | 20.0 | 0.00 | 0.00 | 0.00 | 70 | 1011.7 |
| 20260902190034 | 65 | 201 | 8.0 | 15.0 | 0.00 | 0.00 | 0.00 | 56 | 1011.3 |
| 20260902184535 | 66 | 207 | 5.0 | 12.0 | 0.00 | 0.00 | 0.00 | 55 | 1011.2 |
| 20260902183037 | 66 | 201 | 6.0 | 14.0 | 0.00 | 0.00 | 0.00 | 56 | 1011.3 |
| 20260902181530 | 65 | 198 | 6.0 | 12.0 | 0.00 | 0.00 | 0.00 | 58 | 1011.4 |
| 20260902180031 | 64 | 184 | 4.0 | 11.0 | 0.00 | 0.00 | 0.00 | 66 | 1011.5 |
| 20260902174529 | 61 | 79 | 3.0 | 7.0 | 0.00 | 0.00 | 0.00 | 72 | 1011.7 |
| 20260902173033 | 60 | 54 | 2.0 | 7.0 | 0.00 | 0.00 | 0.00 | 72 | 1011.9 |
| 20260902171529 | 62 | 43 | 2.0 | 5.0 | 0.00 | 0.00 | 0.00 | 71 | 1012.1 |
| 20260902170105 | 61 | 61 | 1.0 | 5.0 | 0.00 | 0.00 | 0.00 | 76 | 1012.2 |
| 20260902164609 | 59 | 39 | 2.0 | 6.0 | 0.00 | 0.00 | 0.00 | 79 | 1012.3 |
| 20260902163031 | 59 | 61 | 3.0 | 6.0 | 0.00 | 0.00 | 0.00 | 79 | 1012.4 |
| 20260902161645 | 55 | 70 | 3.0 | 6.0 | 0.00 | 0.00 | 0.00 | 85 | 1012.7 |
| 20260902154643 | 54 | 90 | 3.0 | 5.0 | 0.00 | 0.00 | 0.00 | 87 | 1012.9 |
| 20260902153029 | 53 | 91 | 1.0 | 5.0 | 0.00 | 0.00 | 0.00 | 89 | 1013.0 |
| 20260902151531 | 52 | 95 | 3.0 | 5.0 | 0.00 | 0.00 | 0.00 | 89 | 1012.9 |
| 20260902150030 | 51 | 130 | 2.0 | 5.0 | 0.00 | 0.00 | 0.00 | 91 | 1013.1 |
| 20260902144535 | 50 | 105 | 0.0 | 2.0 | 0.00 | 0.00 | 0.00 | 92 | 1013.2 |
| 20260902143034 | 49 | 133 | 0.0 | 3.0 | 0.00 | 0.00 | 0.00 | 93 | 1013.2 |
| 20260902141536 | 48 | 157 | 1.0 | 3.0 | 0.00 | 0.00 | 0.00 | 93 | 1013.3 |
| 20260902134531 | 47 | 146 | 3.0 | 6.0 | 0.00 | 0.00 | 0.00 | 92 | 1013.2 |
| 20260902133032 | 46 | 139 | 2.0 | 4.0 | 0.00 | 0.00 | 0.00 | 92 | 1013.3 |
| 20260902130037 | 47 | 134 | 1.0 | 4.0 | 0.00 | 0.00 | 0.00 | 92 | 1013.5 |
| 20260902124535 | 47 | 149 | 3.0 | 5.0 | 0.00 | 0.00 | 0.00 | 92 | 1013.6 |
| 20260902123033 | 47 | 152 | 3.0 | 5.0 | 0.00 | 0.00 | 0.00 | 91 | 1013.7 |
| 20260902121531 | 48 | 137 | 0.0 | 4.0 | 0.00 | 0.00 | 0.00 | 91 | 1013.7 |
| 20260902114530 | 47 | 135 | 3.0 | 5.0 | 0.00 | 0.00 | 0.00 | 90 | 1013.6 |
| 20260902113035 | 48 | 135 | 3.0 | 4.0 | 0.00 | 0.00 | 0.00 | 90 | 1013.7 |
| 20260902110036 | 48 | 157 | 3.0 | 6.0 | 0.00 | 0.00 | 0.00 | 90 | 1013.7 |
| 20260902104542 | 48 | 132 | 1.0 | 3.0 | 0.00 | 0.00 | 0.00 | 89 | 1013.6 |
| 20260902104535 | 48 | 73 | 0.0 | 4.0 | 0.00 | 0.00 | 0.00 | 88 | 1013.6 |
| 20260902101530 | 49 | 169 | 0.0 | 3.0 | 0.00 | 0.00 | 0.00 | 88 | 1013.6 |
| 20260902100149 | 50 | 178 | 2.0 | 3.0 | 0.00 | 0.00 | 0.00 | 88 | 1013.8 |
| 20260902091531 | 50 | 175 | 2.0 | 4.0 | 0.00 | 0.00 | 0.00 | 88 | 1013.8 |
| 20260902084530 | 49 | 156 | 2.0 | 4.0 | 0.00 | 0.00 | 0.00 | 88 | 1013.9 |
| 20260902083035 | 49 | 157 | 1.0 | 3.0 | 0.00 | 0.00 | 0.00 | 88 | 1013.9 |
| 20260902081531 | 50 | 145 | 2.0 | 3.0 | 0.00 | 0.00 | 0.00 | 87 | 1013.8 |
| 20260902080035 | 50 | 156 | 2.0 | 4.0 | 0.00 | 0.00 | 0.00 | 86 | 1014.0 |
| 20260902074534 | 51 | 153 | 2.0 | 4.0 | 0.00 | 0.00 | 0.00 | 85 | 1014.1 |
| 20260902073109 | 51 | 157 | 1.0 | 4.0 | 0.00 | 0.00 | 0.00 | 85 | 1014.2 |
| 20260902071535 | 51 | 152 | 2.0 | 6.0 | 0.00 | 0.00 | 0.00 | 86 | 1014.4 |
| 20260902070030 | 51 | 163 | 3.0 | 5.0 | 0.00 | 0.00 | 0.00 | 85 | 1014.3 |
| 20260902064534 | 52 | 171 | 3.0 | 6.0 | 0.00 | 0.00 | 0.00 | 84 | 1014.5 |
| 20260902063029 | 53 | 143 | 2.0 | 5.0 | 0.00 | 0.00 | 0.00 | 83 | 1014.2 |
| 20260902060032 | 53 | 118 | 3.0 | 7.0 | 0.00 | 0.00 | 0.00 | 81 | 1014.2 |
| 20260902054535 | 54 | 67 | 3.0 | 5.0 | 0.00 | 0.00 | 0.00 | 79 | 1014.0 |
| 20260902051531 | 56 | 61 | 1.0 | 4.0 | 0.00 | 0.00 | 0.00 | 74 | 1014.2 |
| 20260902050106 | 56 | 7 | 1.0 | 6.0 | 0.00 | 0.00 | 0.00 | 73 | 1013.9 |
| 20260902044532 | 56 | 37 | 1.0 | 6.0 | 0.00 | 0.00 | 0.00 | 73 | 1013.7 |
| 20260902043108 | 56 | 66 | 2.0 | 4.0 | 0.00 | 0.00 | 0.00 | 71 | 1013.7 |
| 20260902041530 | 57 | 30 | 0.0 | 7.0 | 0.00 | 0.00 | 0.00 | 68 | 1013.3 |
| 20260902034530 | 58 | 51 | 2.0 | 9.0 | 0.00 | 0.00 | 0.00 | 66 | 1013.1 |
| 20260902031537 | 59 | 340 | 4.0 | 10.0 | 0.00 | 0.00 | 0.00 | 63 | 1012.5 |
| 20260902024531 | 60 | 19 | 1.0 | 7.0 | 0.00 | 0.00 | 0.00 | 62 | 1012.5 |
| 20260902023030 | 60 | 29 | 4.0 | 8.0 | 0.00 | 0.00 | 0.00 | 62 | 1012.4 |
| 20260902021538 | 61 | 52 | 4.0 | 9.0 | 0.00 | 0.00 | 0.00 | 62 | 1012.2 |
| 20260902014607 | 63 | 20 | 2.0 | 9.0 | 0.00 | 0.00 | 0.00 | 58 | 1011.8 |
| 20260902013143 | 65 | 16 | 3.0 | 13.0 | 0.00 | 0.00 | 0.00 | 55 | 1011.7 |
| 20260902011536 | 67 | 7 | 5.0 | 11.0 | 0.00 | 0.00 | 0.00 | 53 | 1011.5 |
| 20260902010144 | 68 | 4 | 7.0 | 14.0 | 0.00 | 0.00 | 0.00 | 52 | 1011.1 |
| 20260902004535 | 70 | 14 | 6.0 | 13.0 | 0.00 | 0.00 | 0.00 | 50 | 1011.1 |
| 20260902003029 | 72 | 21 | 6.0 | 13.0 | 0.00 | 0.00 | 0.00 | 49 | 1011.1 |
| 20260902001542 | 72 | 16 | 5.0 | 10.0 | 0.00 | 0.00 | 0.00 | 49 | 1011.2 |
| 20260901234531 | 70 | 49 | 6.0 | 13.0 | 0.00 | 0.00 | 0.00 | 55 | 1011.3 |
| 20260901233106 | 70 | 52 | 6.0 | 12.0 | 0.00 | 0.00 | 0.00 | 55 | 1011.4 |